Regional Weather Roundup
Issued by NWS

Home | Current Version | Previous Version | Graphics & Text | Print | Product List | Glossary On
Versions: 1 2 3 4 5 6 7 8 9 10 11 12 13 14 15 16 17 18 19 20 21 22 23 24 25 26 27 28 29 30 31 32 33 34 35 36 37 38 39 40 41 42 43 44 45 46 47 48 49 50
000
ASUS43 KLSX 242307
RWRMO

WEATHER SUMMARY FOR MISSOURI
NATIONAL WEATHER SERVICE SPRINGFIELD MO
600 PM CDT THU JUL 24 2014

NOTE: "FAIR" INDICATES FEW OR NO CLOUDS BELOW 12,000 FEET WITH NO
       SIGNIFICANT WEATHER AND/OR OBSTRUCTIONS TO VISIBILITY.
       CURRENT SKY AND/OR WEATHER CONDITIONS ARE NOT AVAILABLE FOR
       CHILLICOTHE AND FARMINGTON.

MOZ001>031-035>038-043-044-053-054-250000-
...NORTHERN AND WESTERN MISSOURI...

CITY           SKY/WX    TMP DP  RH WIND       PRES   REMARKS
KANSAS CTY INT MOSUNNY   82  60  47 SE9       30.03R
KANSAS C DTWN  SUNNY     83  59  44 SE12      30.01S
LEE`S SUMMIT   SUNNY     81  59  47 SE10G17   30.04S
ST JOSEPH      SUNNY     82  62  50 SE14      30.01F
CHILLICOTHE      N/A     80  58  46 SE7       30.07S
KIRKSVILLE     MOSUNNY   79  58  48 SE5       30.10F

$$
MOZ066>068-077>081-088>096-101>105-250000-
...SOUTHWEST MISSOURI...

CITY           SKY/WX    TMP DP  RH WIND       PRES   REMARKS
SPRINGFIELD    SUNNY     83  56  39 E6        30.05F
JOPLIN         SUNNY     87  62  43 SE8       30.01F

$$
MOZ032>034-039>042-045>050-055>058-069>072-250000-
...CENTRAL MISSOURI...

CITY           SKY/WX    TMP DP  RH WIND       PRES   REMARKS
COLUMBIA       SUNNY     81  55  40 E5        30.07R
JEFFERSON CITY SUNNY     82  54  37 CALM      30.04R
ROLLA          SUNNY     79  50  36 E6        30.05S
SEDALIA        MOSUNNY   83  55  38 E6        30.05F
WHITEMAN AFB   SUNNY     82  45  27 SE7       30.04S
OSAGE BEACH    SUNNY     82  54  36 NE6       30.04R

$$
MOZ051-052-059>065-250000-
...EAST CENTRAL MISSOURI...

CITY           SKY/WX    TMP DP  RH WIND       PRES   REMARKS
ST LOUIS INTL  PTSUNNY   80  52  37 E5        30.06R
SPIRIT OF STL  PTSUNNY   81  49  32 NE10      30.04S
ST CHARLES     MOSUNNY   80  53  39 NE3       30.05S

$$
MOZ072>076-082>087-097>100-106>115-250000-
...SOUTH CENTRAL AND SOUTHEAST MISSOURI...

CITY           SKY/WX    TMP DP  RH WIND       PRES   REMARKS
CAPE GIRARDEAU MOSUNNY   80  60  50 NE7       30.02F
FARMINGTON     MOSUNNY   77  54  44 NE7       30.07S
POPLAR BLUFF   SUNNY     80  59  48 E5        30.01F
WEST PLAINS    SUNNY     80  55  42 NE5       30.06F

$$


USA.gov is the U.S. government's official web portal to all federal, state and local government web resources and services.